CVBQ Weather Reports


time (UTC)temp
F
wind
direction
speed
knots
gust
knots
rain 1hr
in
rain 24hr
in
rain mn
in
humidity
%
barometer
mb
20260504231519 49 248 0.0 0.9 0.00 0.00 0.00 88 1022.0
20260504230019 49 249 0.0 0.0 0.00 0.00 0.00 86 1022.1
20260504224516 50 249 0.0 0.0 0.00 0.00 0.00 85 1022.1
20260504223016 51 249 0.0 0.0 0.00 0.00 0.00 83 1022.1
20260504221519 52 256 0.0 1.7 0.00 0.00 0.00 82 1022.0
20260504220015 53 245 0.0 3.5 0.00 0.00 0.00 82 1022.0
20260504214514 53 237 2.6 6.1 0.00 0.00 0.00 81 1022.2
20260504213034 53 252 0.9 4.3 0.00 0.00 0.00 80 1022.3
20260504211517 53 262 1.7 5.2 0.00 0.00 0.00 79 1022.3
20260504210014 53 259 0.0 2.6 0.00 0.00 0.00 79 1022.3
20260504204510 53 226 0.0 3.5 0.00 0.00 0.00 79 1022.1
20260504203010 53 245 0.9 2.6 0.00 0.00 0.00 79 1021.9
20260504201512 53 271 0.9 3.5 0.00 0.00 0.00 78 1021.8
20260504200005 54 251 0.0 4.3 0.00 0.00 0.00 76 1021.5
20260504194504 54 262 2.6 5.2 0.00 0.00 0.00 74 1021.5
20260504193003 55 259 3.5 7.8 0.00 0.00 0.00 71 1021.2
20260504191604 56 244 1.7 9.6 0.00 0.00 0.00 69 1021.1
20260504190119 57 236 2.6 7.8 0.00 0.00 0.00 66 1020.9
20260504184607 57 218 1.7 7.0 0.00 0.00 0.00 70 1020.8
20260504183058 56 237 0.0 5.2 0.00 0.00 0.00 72 1020.7
20260504181558 56 250 2.6 6.1 0.00 0.00 0.00 69 1020.7
20260504180057 57 248 2.6 7.8 0.00 0.00 0.00 66 1020.8
20260504174607 59 245 3.5 11.3 0.00 0.00 0.00 60 1020.8
20260504173058 59 238 1.7 7.8 0.00 0.00 0.00 65 1020.7
20260504171555 60 225 3.5 7.8 0.00 0.00 0.00 65 1020.6
20260504081506 54 181 0.0 1.7 0.00 0.21 0.00 93 1020.5
20260504044558 49 241 0.0 0.0 0.00 0.21 0.00 97 1019.2
20260504043046 49 241 0.0 0.0 0.00 0.21 0.00 97 1019.2
20260504041544 49 241 0.0 0.0 0.00 0.21 0.00 97 1019.2
20260504040044 48 241 0.0 0.0 0.00 0.21 0.00 97 1019.3
20260504034551 48 241 0.0 0.0 0.00 0.21 0.00 97 1019.2
20260504033052 49 241 0.0 0.0 0.00 0.21 0.00 97 1019.3
20260504031542 48 241 0.0 0.0 0.00 0.21 0.00 97 1019.4
20260504030041 49 241 0.0 0.0 0.00 0.21 0.00 96 1019.4
20260504024545 49 241 0.0 0.9 0.00 0.21 0.00 97 1019.3
20260504023040 48 241 0.0 0.0 0.00 0.21 0.00 96 1019.4
20260504021541 48 241 0.0 0.0 0.00 0.21 0.00 97 1019.3
20260504020037 48 241 0.0 0.0 0.00 0.21 0.00 96 1019.4
20260504014539 48 241 0.0 0.0 0.00 0.21 0.00 96 1019.5
20260504013038 48 241 0.0 0.0 0.00 0.21 0.00 96 1019.5
20260504011533 48 246 0.0 0.0 0.00 0.21 0.00 95 1019.6
20260504010046 49 246 0.0 0.0 0.00 0.22 0.00 96 1019.7
20260504004531 49 246 0.0 0.0 0.00 0.22 0.00 95 1019.7
20260504003028 49 246 0.0 0.0 0.00 0.22 0.00 95 1019.7
20260504001528 49 246 0.0 0.0 0.00 0.22 0.00 95 1019.8
20260504000028 50 246 0.0 0.9 0.00 0.22 0.00 94 1019.8
20260503234527 50 246 0.0 0.0 0.00 0.22 0.00 95 1019.8
20260503233025 50 246 0.0 0.0 0.00 0.22 0.00 94 1019.8